User: anonymous   Login
Location: Unspecified
(0.0000°N, 0.0000°E)
Time: 08:51:31
(UTC+00:00)
Language:

SWISSCUBE - Orbit

View from above orbital plane
View from above orbital plane
View from above satellite
View from above satellite

Ground track
Ground track

The orbit data is extracted from the following two-line orbital elements,

1 35932U 09051B   18111.88475129  .00000195  00000-0  55152-4 0  9990
2 35932  98.5370 261.7175 0008116  31.8395 328.3291 14.56145543455246
Epoch (UTC): 21 April 2018 21:14:02
Eccentricity: 0.0008116
inclination: 98.5370°
perigee height: 700 km
apogee height: 711 km
right ascension of ascending node: 261.7175°
argument of perigee: 31.8395°
revolutions per day: 14.56145543
mean anomaly at epoch: 328.3291°
orbit number at epoch: 45524

The dashed part of the orbit path shows where the satellite is in the earth's shadow,  

DLR